Welcome to Des Moines Iowa Weather. I am an independent private personal weather station on the Northwest Side of Des Moines, Iowa. Just East of Windsor Heights and just West of Glendale . This site is also mobile friendly.

There are no active watches, warnings or advisories


Visit our other weather sites:

Historical Data

Weather Station Setup



Weather Underground History page Text

Daily Summary for January 23, 2017 Units:  English    Metric   Both
« Previous Day
Next Day »
Daily Weekly Monthly Yearly Custom
  High: Low: Average:
Temperature: 34.3 °F 31.1 °F 32.4 °F
Dew Point: 33.3 °F 29.3 °F 30.2 °F
Humidity: 97 % 87 % 92 %
Wind Speed: 7.0 mph 0.0 mph 1.1 mph
Wind Gust: 10.0 mph - -
Wind:- - WNW
Pressure: 29.94 in 29.86 in -
Precipitation: 0.00 in    
Historical Graphs
 
 
Tabular Data for January 23, 2017
Time Temperature Dew Point Pressure Wind Wind Speed Wind Gust Humidity Rainfall Rate (Hourly)
00:00 34.3 °F 33.3 °F 29.90 in WNW 2.0 mph 7.0 mph 96 % 0.00 in
00:05 34.3 °F 33.3 °F 29.90 in WNW 2.0 mph 7.0 mph 96 % 0.00 in
00:08 34.0 °F 33.0 °F 29.89 in NW 2.0 mph 6.0 mph 97 % 0.00 in
00:10 34.2 °F 33.2 °F 29.90 in West 2.0 mph 6.0 mph 96 % 0.00 in
00:15 34.2 °F 33.2 °F 29.90 in West 2.0 mph 6.0 mph 96 % 0.00 in
00:20 34.2 °F 33.2 °F 29.90 in West 2.0 mph 6.0 mph 96 % 0.00 in
00:23 33.8 °F 33.0 °F 29.89 in NW 2.0 mph 6.0 mph 97 % 0.00 in
00:25 34.0 °F 33.0 °F 29.90 in NW 2.0 mph 6.0 mph 96 % 0.00 in
00:30 34.0 °F 33.0 °F 29.90 in NW 2.0 mph 6.0 mph 96 % 0.00 in
00:35 34.0 °F 33.0 °F 29.90 in NW 2.0 mph 6.0 mph 96 % 0.00 in
00:38 33.5 °F 33.0 °F 29.90 in NW 6.0 mph 7.0 mph 97 % 0.00 in
00:40 33.8 °F 32.8 °F 29.90 in NW 2.0 mph 6.0 mph 96 % 0.00 in
00:45 33.8 °F 32.8 °F 29.90 in NW 2.0 mph 6.0 mph 96 % 0.00 in
00:50 33.8 °F 32.8 °F 29.90 in NW 2.0 mph 6.0 mph 96 % 0.00 in
00:53 33.2 °F 33.0 °F 29.89 in NW 4.0 mph 5.0 mph 97 % 0.00 in
00:55 33.5 °F 32.5 °F 29.90 in NW 2.0 mph 7.0 mph 96 % 0.00 in
01:00 33.5 °F 32.5 °F 29.90 in NW 2.0 mph 7.0 mph 96 % 0.00 in
01:05 33.5 °F 32.5 °F 29.90 in NW 2.0 mph 7.0 mph 96 % 0.00 in
01:08 32.8 °F 32.0 °F 29.89 in NW 2.0 mph 8.0 mph 97 % 0.00 in
01:10 33.2 °F 32.2 °F 29.90 in NW 3.0 mph 10.0 mph 96 % 0.00 in
01:15 33.2 °F 32.2 °F 29.90 in NW 3.0 mph 10.0 mph 96 % 0.00 in
01:20 33.2 °F 32.2 °F 29.90 in NW 3.0 mph 10.0 mph 96 % 0.00 in
01:23 32.4 °F 32.0 °F 29.89 in WNW 1.0 mph 10.0 mph 97 % 0.00 in
01:25 32.8 °F 31.8 °F 29.90 in NW 2.0 mph 8.0 mph 96 % 0.00 in
01:30 32.8 °F 31.8 °F 29.90 in NW 2.0 mph 8.0 mph 96 % 0.00 in
01:35 32.8 °F 31.8 °F 29.90 in NW 2.0 mph 8.0 mph 96 % 0.00 in
01:38 32.1 °F 31.0 °F 29.90 in NW 2.0 mph 6.0 mph 97 % 0.00 in
01:40 32.4 °F 31.4 °F 29.90 in WNW 2.0 mph 10.0 mph 96 % 0.00 in
01:45 32.4 °F 31.4 °F 29.90 in WNW 2.0 mph 10.0 mph 96 % 0.00 in
01:50 32.4 °F 31.4 °F 29.90 in WNW 2.0 mph 10.0 mph 96 % 0.00 in
01:53 31.8 °F 31.0 °F 29.90 in NW 2.0 mph 4.0 mph 97 % 0.00 in
01:55 32.1 °F 31.1 °F 29.90 in NW 1.0 mph 6.0 mph 96 % 0.00 in
02:00 32.1 °F 31.1 °F 29.90 in NW 1.0 mph 6.0 mph 96 % 0.00 in
02:05 32.1 °F 31.1 °F 29.90 in NW 1.0 mph 6.0 mph 96 % 0.00 in
02:08 31.8 °F 31.0 °F 29.90 in NW 1.0 mph 2.0 mph 97 % 0.00 in
02:10 31.9 °F 30.9 °F 29.91 in NW 1.0 mph 4.0 mph 96 % 0.00 in
02:15 31.9 °F 30.9 °F 29.91 in NW 1.0 mph 4.0 mph 96 % 0.00 in
02:20 31.9 °F 30.9 °F 29.91 in NW 1.0 mph 4.0 mph 96 % 0.00 in
02:23 31.7 °F 31.0 °F 29.91 in WNW 4.0 mph 6.0 mph 97 % 0.00 in
02:25 31.8 °F 30.8 °F 29.91 in NW 1.0 mph 4.0 mph 96 % 0.00 in
02:30 31.8 °F 30.8 °F 29.91 in NW 1.0 mph 4.0 mph 96 % 0.00 in
02:35 31.8 °F 30.8 °F 29.91 in NW 1.0 mph 4.0 mph 96 % 0.00 in
02:38 31.5 °F 31.0 °F 29.91 in WNW 1.0 mph 3.0 mph 97 % 0.00 in
02:40 31.7 °F 30.7 °F 29.92 in WNW 2.0 mph 6.0 mph 96 % 0.00 in
02:45 31.7 °F 30.7 °F 29.92 in WNW 2.0 mph 6.0 mph 96 % 0.00 in
02:50 31.7 °F 30.7 °F 29.92 in WNW 2.0 mph 6.0 mph 96 % 0.00 in
02:53 31.2 °F 31.0 °F 29.91 in North 3.0 mph 9.0 mph 97 % 0.00 in
02:55 31.5 °F 30.5 °F 29.91 in WNW 1.0 mph 7.0 mph 96 % 0.00 in
03:00 31.5 °F 30.5 °F 29.91 in WNW 1.0 mph 7.0 mph 96 % 0.00 in
03:05 31.5 °F 30.5 °F 29.91 in WNW 1.0 mph 7.0 mph 96 % 0.00 in
03:08 31.1 °F 30.0 °F 29.90 in NW 1.0 mph 9.0 mph 97 % 0.00 in
03:10 31.2 °F 30.2 °F 29.91 in North 3.0 mph 9.0 mph 96 % 0.00 in
03:15 31.2 °F 30.2 °F 29.91 in North 3.0 mph 9.0 mph 96 % 0.00 in
03:20 31.2 °F 30.2 °F 29.91 in North 3.0 mph 9.0 mph 96 % 0.00 in
03:23 31.1 °F 30.0 °F 29.90 in WNW 1.0 mph 8.0 mph 97 % 0.00 in
03:25 31.1 °F 30.1 °F 29.91 in NW 2.0 mph 6.0 mph 96 % 0.00 in
03:30 31.1 °F 30.1 °F 29.91 in NW 2.0 mph 6.0 mph 96 % 0.00 in
03:35 31.1 °F 30.1 °F 29.91 in NW 2.0 mph 6.0 mph 96 % 0.00 in
03:38 31.1 °F 30.0 °F 29.90 in NW 4.0 mph 6.0 mph 97 % 0.00 in
03:40 31.1 °F 30.1 °F 29.91 in NW 2.0 mph 8.0 mph 96 % 0.00 in
03:45 31.1 °F 30.1 °F 29.91 in NW 2.0 mph 8.0 mph 96 % 0.00 in
03:50 31.1 °F 30.1 °F 29.91 in NW 2.0 mph 8.0 mph 96 % 0.00 in
03:53 31.2 °F 30.0 °F 29.89 in NW 2.0 mph 8.0 mph 96 % 0.00 in
03:55 31.1 °F 29.8 °F 29.91 in NW 2.0 mph 7.0 mph 95 % 0.00 in
04:00 31.1 °F 29.8 °F 29.91 in NW 2.0 mph 7.0 mph 95 % 0.00 in
04:05 31.1 °F 29.8 °F 29.91 in NW 2.0 mph 7.0 mph 95 % 0.00 in
04:08 31.3 °F 30.0 °F 29.89 in NW 5.0 mph 8.0 mph 96 % 0.00 in
04:10 31.2 °F 30.2 °F 29.89 in NW 2.0 mph 8.0 mph 96 % 0.00 in
04:15 31.2 °F 30.2 °F 29.89 in NW 2.0 mph 8.0 mph 96 % 0.00 in
04:20 31.2 °F 30.2 °F 29.89 in NW 2.0 mph 8.0 mph 96 % 0.00 in
04:23 31.4 °F 30.0 °F 29.89 in Calm   3.0 mph 96 % 0.00 in
04:25 31.3 °F 30.0 °F 29.90 in NW 3.0 mph 10.0 mph 95 % 0.00 in
04:30 31.3 °F 30.0 °F 29.90 in NW 3.0 mph 10.0 mph 95 % 0.00 in
04:35 31.3 °F 30.0 °F 29.90 in NW 3.0 mph 10.0 mph 95 % 0.00 in
04:38 31.5 °F 31.0 °F 29.89 in WNW 4.0 mph 5.0 mph 96 % 0.00 in
04:40 31.4 °F 30.1 °F 29.89 in North 1.0 mph 3.0 mph 95 % 0.00 in
04:45 31.4 °F 30.1 °F 29.89 in North 1.0 mph 3.0 mph 95 % 0.00 in
04:50 31.4 °F 30.1 °F 29.89 in North 1.0 mph 3.0 mph 95 % 0.00 in
04:53 31.4 °F 30.0 °F 29.88 in Calm   6.0 mph 96 % 0.00 in
04:55 31.5 °F 30.2 °F 29.89 in WNW 2.0 mph 7.0 mph 95 % 0.00 in
05:00 31.5 °F 30.2 °F 29.89 in WNW 2.0 mph 7.0 mph 95 % 0.00 in
05:05 31.5 °F 30.2 °F 29.89 in WNW 2.0 mph 7.0 mph 95 % 0.00 in
05:08 31.4 °F 30.0 °F 29.89 in NW 2.0 mph 8.0 mph 96 % 0.00 in
05:10 31.4 °F 30.1 °F 29.89 in NW 2.0 mph 6.0 mph 95 % 0.00 in
05:15 31.4 °F 30.1 °F 29.89 in NW 2.0 mph 6.0 mph 95 % 0.00 in
05:20 31.4 °F 30.1 °F 29.89 in NW 2.0 mph 6.0 mph 95 % 0.00 in
05:23 31.5 °F 31.0 °F 29.89 in WNW 1.0 mph 8.0 mph 96 % 0.00 in
05:25 31.4 °F 30.1 °F 29.90 in NW 3.0 mph 8.0 mph 95 % 0.00 in
05:30 31.4 °F 30.1 °F 29.90 in NW 3.0 mph 8.0 mph 95 % 0.00 in
05:35 31.4 °F 30.1 °F 29.90 in NW 3.0 mph 8.0 mph 95 % 0.00 in
05:38 31.6 °F 30.0 °F 29.89 in NNW 3.0 mph 8.0 mph 95 % 0.00 in
05:40 31.5 °F 30.2 °F 29.90 in WNW 2.0 mph 8.0 mph 95 % 0.00 in
05:45 31.5 °F 30.2 °F 29.90 in WNW 2.0 mph 8.0 mph 95 % 0.00 in
05:50 31.5 °F 30.2 °F 29.90 in WNW 2.0 mph 8.0 mph 95 % 0.00 in
05:53 31.6 °F 31.0 °F 29.89 in NW 3.0 mph 6.0 mph 96 % 0.00 in
05:55 31.6 °F 30.1 °F 29.90 in NW 2.0 mph 8.0 mph 94 % 0.00 in
06:00 31.6 °F 30.1 °F 29.90 in NW 2.0 mph 8.0 mph 94 % 0.00 in
06:05 31.6 °F 30.1 °F 29.90 in NW 2.0 mph 8.0 mph 94 % 0.00 in
06:08 31.6 °F 31.0 °F 29.89 in NW 3.0 mph 10.0 mph 96 % 0.00 in
06:10 31.6 °F 30.3 °F 29.90 in NW 2.0 mph 6.0 mph 95 % 0.00 in
06:15 31.6 °F 30.3 °F 29.90 in NW 2.0 mph 6.0 mph 95 % 0.00 in
06:20 31.6 °F 30.3 °F 29.90 in NW 2.0 mph 6.0 mph 95 % 0.00 in
06:23 31.6 °F 31.0 °F 29.89 in WNW 4.0 mph 7.0 mph 96 % 0.00 in
06:25 31.6 °F 30.3 °F 29.90 in NW 3.0 mph 10.0 mph 95 % 0.00 in
06:30 31.6 °F 30.3 °F 29.90 in NW 3.0 mph 10.0 mph 95 % 0.00 in
06:35 31.6 °F 30.3 °F 29.90 in NW 3.0 mph 10.0 mph 95 % 0.00 in
06:38 31.6 °F 31.0 °F 29.89 in NW 2.0 mph 4.0 mph 96 % 0.00 in
06:40 31.6 °F 30.3 °F 29.89 in WNW 2.0 mph 7.0 mph 95 % 0.00 in
06:45 31.6 °F 30.3 °F 29.89 in WNW 2.0 mph 7.0 mph 95 % 0.00 in
06:50 31.6 °F 30.3 °F 29.89 in WNW 2.0 mph 7.0 mph 95 % 0.00 in
06:54 31.6 °F 31.0 °F 29.89 in WNW 2.0 mph 8.0 mph 96 % 0.00 in
06:55 31.5 °F 30.2 °F 29.89 in NW 2.0 mph 4.0 mph 95 % 0.00 in
07:00 31.5 °F 30.2 °F 29.89 in NW 2.0 mph 4.0 mph 95 % 0.00 in
07:05 31.5 °F 30.2 °F 29.89 in NW 2.0 mph 4.0 mph 95 % 0.00 in
07:08 31.5 °F 31.0 °F 29.88 in Calm   6.0 mph 96 % 0.00 in
07:10 31.6 °F 30.3 °F 29.89 in NW 2.0 mph 8.0 mph 95 % 0.00 in
07:15 31.6 °F 30.3 °F 29.89 in NW 2.0 mph 8.0 mph 95 % 0.00 in
07:20 31.6 °F 30.3 °F 29.89 in NW 2.0 mph 8.0 mph 95 % 0.00 in
07:24 31.6 °F 30.0 °F 29.88 in Calm   10.0 mph 95 % 0.00 in
07:25 31.5 °F 30.0 °F 29.88 in NNE 2.0 mph 2.0 mph 94 % 0.00 in
07:30 31.6 °F 30.1 °F 29.88 in NE 2.0 mph 2.0 mph 94 % 0.00 in
07:35 31.5 °F 30.0 °F 29.88 in NW 2.0 mph 10.0 mph 94 % 0.00 in
07:39 31.5 °F 30.0 °F 29.87 in NW 2.0 mph 9.0 mph 95 % 0.00 in
07:40 31.5 °F 30.0 °F 29.88 in NW 2.0 mph 10.0 mph 94 % 0.00 in
07:45 31.5 °F 30.0 °F 29.88 in NW 2.0 mph 10.0 mph 94 % 0.00 in
07:50 31.6 °F 30.1 °F 29.88 in NW 2.0 mph 9.0 mph 94 % 0.00 in
07:54 31.6 °F 30.0 °F 29.88 in NW 3.0 mph 5.0 mph 95 % 0.00 in
07:55 31.6 °F 30.1 °F 29.88 in NW 2.0 mph 9.0 mph 94 % 0.00 in
08:00 31.6 °F 30.1 °F 29.88 in NW 2.0 mph 9.0 mph 94 % 0.00 in
08:05 31.6 °F 30.1 °F 29.89 in NW 2.0 mph 5.0 mph 94 % 0.00 in
08:09 31.5 °F 30.0 °F 29.88 in Calm   4.0 mph 95 % 0.00 in
08:10 31.6 °F 30.1 °F 29.89 in NW 2.0 mph 5.0 mph 94 % 0.00 in
08:15 31.6 °F 30.1 °F 29.89 in NW 2.0 mph 5.0 mph 94 % 0.00 in
08:20 31.5 °F 30.0 °F 29.89 in NW 1.0 mph 4.0 mph 94 % 0.00 in
08:24 31.6 °F 30.0 °F 29.89 in WNW 4.0 mph 6.0 mph 95 % 0.00 in
08:25 31.5 °F 30.0 °F 29.89 in NW 1.0 mph 4.0 mph 94 % 0.00 in
08:30 31.5 °F 30.0 °F 29.89 in NW 1.0 mph 4.0 mph 94 % 0.00 in
08:35 31.6 °F 29.8 °F 29.90 in WNW 2.0 mph 6.0 mph 93 % 0.00 in
08:39 31.6 °F 30.0 °F 29.90 in NW 3.0 mph 5.0 mph 94 % 0.00 in
08:40 31.6 °F 29.8 °F 29.90 in WNW 2.0 mph 6.0 mph 93 % 0.00 in
08:45 31.6 °F 29.8 °F 29.90 in WNW 2.0 mph 6.0 mph 93 % 0.00 in
08:50 31.6 °F 29.8 °F 29.91 in WNW 2.0 mph 5.0 mph 93 % 0.00 in
08:54 31.7 °F 30.0 °F 29.90 in WNW 3.0 mph 4.0 mph 94 % 0.00 in
08:55 31.6 °F 29.8 °F 29.91 in WNW 2.0 mph 5.0 mph 93 % 0.00 in
09:00 31.6 °F 29.8 °F 29.91 in WNW 2.0 mph 5.0 mph 93 % 0.00 in
09:05 31.7 °F 29.9 °F 29.91 in WNW 1.0 mph 4.0 mph 93 % 0.00 in
09:09 31.7 °F 30.0 °F 29.90 in WNW 7.0 mph 7.0 mph 94 % 0.00 in
09:10 31.7 °F 29.9 °F 29.91 in WNW 1.0 mph 4.0 mph 93 % 0.00 in
09:15 31.7 °F 29.9 °F 29.91 in WNW 1.0 mph 4.0 mph 93 % 0.00 in
09:20 31.7 °F 29.9 °F 29.91 in WNW 2.0 mph 9.0 mph 93 % 0.00 in
09:24 31.6 °F 30.0 °F 29.91 in NW 3.0 mph 8.0 mph 94 % 0.00 in
09:25 31.7 °F 29.9 °F 29.91 in WNW 2.0 mph 9.0 mph 93 % 0.00 in
09:30 31.7 °F 29.9 °F 29.91 in WNW 2.0 mph 9.0 mph 93 % 0.00 in
09:35 31.6 °F 29.8 °F 29.92 in NW 2.0 mph 8.0 mph 93 % 0.00 in
09:39 31.7 °F 30.0 °F 29.92 in NNW 2.0 mph 5.0 mph 94 % 0.00 in
09:40 31.6 °F 29.8 °F 29.92 in NW 2.0 mph 8.0 mph 93 % 0.00 in
09:45 31.6 °F 29.8 °F 29.92 in NW 2.0 mph 8.0 mph 93 % 0.00 in
09:50 31.7 °F 29.9 °F 29.93 in NW 2.0 mph 5.0 mph 93 % 0.00 in
09:54 31.8 °F 30.0 °F 29.93 in NNE 1.0 mph 4.0 mph 94 % 0.00 in
09:55 31.7 °F 29.9 °F 29.93 in NW 2.0 mph 5.0 mph 93 % 0.00 in
10:00 31.7 °F 29.9 °F 29.93 in NW 2.0 mph 5.0 mph 93 % 0.00 in
10:05 31.8 °F 30.0 °F 29.94 in NNE 2.0 mph 7.0 mph 93 % 0.00 in
10:09 31.8 °F 30.0 °F 29.94 in NW 5.0 mph 5.0 mph 93 % 0.00 in
10:10 31.8 °F 30.0 °F 29.94 in NNE 2.0 mph 7.0 mph 93 % 0.00 in
10:15 31.8 °F 30.0 °F 29.94 in NNE 2.0 mph 7.0 mph 93 % 0.00 in
10:20 31.8 °F 29.8 °F 29.94 in NW 2.0 mph 5.0 mph 92 % 0.00 in
10:24 31.9 °F 30.0 °F 29.94 in Calm   4.0 mph 93 % 0.00 in
10:25 31.8 °F 29.8 °F 29.94 in NW 2.0 mph 5.0 mph 92 % 0.00 in
10:30 31.8 °F 29.8 °F 29.94 in NW 2.0 mph 5.0 mph 92 % 0.00 in
10:35 31.9 °F 29.8 °F 29.94 in NW 2.0 mph 4.0 mph 92 % 0.00 in
10:39 32.0 °F 30.0 °F 29.93 in NW 2.0 mph 5.0 mph 93 % 0.00 in
10:40 31.9 °F 29.8 °F 29.94 in NW 2.0 mph 4.0 mph 92 % 0.00 in
10:45 31.9 °F 29.8 °F 29.94 in NW 2.0 mph 4.0 mph 92 % 0.00 in
10:50 32.0 °F 30.0 °F 29.94 in NW 1.0 mph 5.0 mph 92 % 0.00 in
10:54 32.1 °F 30.0 °F 29.93 in NW 1.0 mph 8.0 mph 92 % 0.00 in
10:55 32.0 °F 30.0 °F 29.94 in NW 1.0 mph 5.0 mph 92 % 0.00 in
11:00 32.0 °F 30.0 °F 29.94 in NW 1.0 mph 5.0 mph 92 % 0.00 in
11:05 32.1 °F 29.8 °F 29.93 in NW 2.0 mph 8.0 mph 91 % 0.00 in
11:09 32.2 °F 30.0 °F 29.91 in NW 2.0 mph 8.0 mph 92 % 0.00 in
11:10 32.1 °F 29.8 °F 29.93 in NW 2.0 mph 8.0 mph 91 % 0.00 in
11:15 32.1 °F 29.8 °F 29.93 in NW 2.0 mph 8.0 mph 91 % 0.00 in
11:20 32.2 °F 29.9 °F 29.92 in NW 2.0 mph 8.0 mph 91 % 0.00 in
11:24 32.2 °F 30.0 °F 29.92 in NW 2.0 mph 4.0 mph 92 % 0.00 in
11:25 32.2 °F 29.9 °F 29.92 in NW 2.0 mph 8.0 mph 91 % 0.00 in
11:30 32.2 °F 29.9 °F 29.92 in NW 2.0 mph 8.0 mph 91 % 0.00 in
11:35 32.2 °F 29.9 °F 29.92 in NW 1.0 mph 4.0 mph 91 % 0.00 in
11:39 32.3 °F 31.0 °F 29.92 in NW 1.0 mph 4.0 mph 93 % 0.00 in
11:40 32.2 °F 29.9 °F 29.92 in NW 1.0 mph 4.0 mph 91 % 0.00 in
11:45 32.2 °F 29.9 °F 29.92 in NW 1.0 mph 4.0 mph 91 % 0.00 in
11:50 32.3 °F 30.0 °F 29.92 in NW 1.0 mph 4.0 mph 91 % 0.00 in
11:54 32.3 °F 30.0 °F 29.91 in NW 2.0 mph 5.0 mph 92 % 0.00 in
11:55 32.3 °F 30.0 °F 29.92 in NW 1.0 mph 4.0 mph 91 % 0.00 in
12:00 32.3 °F 30.0 °F 29.92 in NW 1.0 mph 4.0 mph 91 % 0.00 in
12:05 32.3 °F 30.0 °F 29.92 in NW 2.0 mph 5.0 mph 91 % 0.00 in
12:09 32.4 °F 30.0 °F 29.91 in Calm   4.0 mph 92 % 0.00 in
12:10 32.3 °F 30.0 °F 29.92 in NW 2.0 mph 5.0 mph 91 % 0.00 in
12:15 32.3 °F 30.0 °F 29.92 in NW 2.0 mph 5.0 mph 91 % 0.00 in
12:20 32.3 °F 30.0 °F 29.91 in NW 1.0 mph 4.0 mph 91 % 0.00 in
12:24 32.5 °F 31.0 °F 29.90 in NW 1.0 mph 4.0 mph 92 % 0.00 in
12:25 32.3 °F 30.0 °F 29.91 in NW 1.0 mph 4.0 mph 91 % 0.00 in
12:30 32.3 °F 30.0 °F 29.91 in NW 1.0 mph 4.0 mph 91 % 0.00 in
12:35 32.4 °F 30.1 °F 29.91 in NW 1.0 mph 4.0 mph 91 % 0.00 in
12:39 32.5 °F 31.0 °F 29.90 in NW 1.0 mph 5.0 mph 92 % 0.00 in
12:40 32.4 °F 30.1 °F 29.91 in NW 1.0 mph 4.0 mph 91 % 0.00 in
12:45 32.4 °F 30.1 °F 29.91 in NW 1.0 mph 4.0 mph 91 % 0.00 in
12:50 32.5 °F 30.2 °F 29.91 in NW 1.0 mph 5.0 mph 91 % 0.00 in
12:54 32.6 °F 31.0 °F 29.90 in Calm   4.0 mph 92 % 0.00 in
12:55 32.5 °F 30.2 °F 29.91 in NW 1.0 mph 5.0 mph 91 % 0.00 in
13:00 32.5 °F 30.2 °F 29.91 in NW 1.0 mph 5.0 mph 91 % 0.00 in
13:05 32.5 °F 29.9 °F 29.91 in NW 1.0 mph 4.0 mph 90 % 0.00 in
13:09 32.6 °F 30.0 °F 29.90 in Calm   3.0 mph 91 % 0.00 in
13:10 32.5 °F 29.9 °F 29.91 in NW 1.0 mph 4.0 mph 90 % 0.00 in
13:15 32.5 °F 29.9 °F 29.91 in NW 1.0 mph 4.0 mph 90 % 0.00 in
13:20 32.6 °F 30.0 °F 29.90 in NW 1.0 mph 4.0 mph 90 % 0.00 in
13:24 32.7 °F 30.0 °F 29.89 in Calm   3.0 mph 91 % 0.00 in
13:25 32.6 °F 30.0 °F 29.90 in NW 1.0 mph 4.0 mph 90 % 0.00 in
13:30 32.6 °F 30.0 °F 29.90 in NW 1.0 mph 4.0 mph 90 % 0.00 in
13:35 32.7 °F 30.1 °F 29.89 in Calm   3.0 mph 90 % 0.00 in
13:39 32.8 °F 31.0 °F 29.88 in Calm   2.0 mph 91 % 0.00 in
13:40 32.7 °F 30.1 °F 29.89 in Calm   3.0 mph 90 % 0.00 in
13:45 32.7 °F 30.1 °F 29.89 in Calm   3.0 mph 90 % 0.00 in
13:50 32.8 °F 30.2 °F 29.89 in Calm   2.0 mph 90 % 0.00 in
13:54 33.0 °F 31.0 °F 29.88 in Calm   2.0 mph 91 % 0.00 in
13:55 32.8 °F 30.2 °F 29.89 in Calm   2.0 mph 90 % 0.00 in
14:00 32.8 °F 30.2 °F 29.89 in Calm   2.0 mph 90 % 0.00 in
14:05 33.0 °F 30.1 °F 29.89 in NW 1.0 mph 5.0 mph 89 % 0.00 in
14:09 33.1 °F 31.0 °F 29.87 in Calm   4.0 mph 90 % 0.00 in
14:10 33.0 °F 30.1 °F 29.89 in NW 1.0 mph 5.0 mph 89 % 0.00 in
14:15 33.0 °F 30.1 °F 29.89 in NW 1.0 mph 5.0 mph 89 % 0.00 in
14:20 33.1 °F 30.2 °F 29.88 in NW 1.0 mph 4.0 mph 89 % 0.00 in
14:24 33.3 °F 30.0 °F 29.87 in NW 1.0 mph 2.0 mph 89 % 0.00 in
14:25 33.1 °F 30.2 °F 29.88 in NW 1.0 mph 4.0 mph 89 % 0.00 in
14:30 33.1 °F 30.2 °F 29.88 in NW 1.0 mph 4.0 mph 89 % 0.00 in
14:35 33.3 °F 30.1 °F 29.88 in Calm   2.0 mph 88 % 0.00 in
14:39 33.5 °F 31.0 °F 29.87 in Calm   2.0 mph 89 % 0.00 in
14:40 33.3 °F 30.1 °F 29.88 in Calm   2.0 mph 88 % 0.00 in
14:45 33.3 °F 30.1 °F 29.88 in Calm   2.0 mph 88 % 0.00 in
14:50 33.4 °F 30.2 °F 29.87 in Calm   2.0 mph 88 % 0.00 in
14:54 33.6 °F 30.0 °F 29.86 in Calm   2.0 mph 88 % 0.00 in
14:55 33.4 °F 30.2 °F 29.87 in Calm   2.0 mph 88 % 0.00 in
15:00 33.4 °F 30.2 °F 29.87 in Calm   2.0 mph 88 % 0.00 in
15:05 33.6 °F 30.1 °F 29.87 in Calm   4.0 mph 87 % 0.00 in
15:09 33.6 °F 30.0 °F 29.87 in NW 2.0 mph 3.0 mph 88 % 0.00 in
15:10 33.6 °F 30.1 °F 29.87 in Calm   4.0 mph 87 % 0.00 in
15:15 33.6 °F 30.1 °F 29.87 in Calm   4.0 mph 87 % 0.00 in
15:20 33.6 °F 30.1 °F 29.87 in Calm   3.0 mph 87 % 0.00 in
15:24 33.6 °F 30.0 °F 29.87 in Calm   2.0 mph 88 % 0.00 in
15:25 33.6 °F 30.1 °F 29.87 in Calm   3.0 mph 87 % 0.00 in
15:30 33.6 °F 30.1 °F 29.87 in Calm   3.0 mph 87 % 0.00 in
15:35 33.6 °F 30.1 °F 29.88 in Calm   2.0 mph 87 % 0.00 in
15:40 33.6 °F 30.0 °F 29.88 in Calm     88 % 0.00 in
15:45 33.6 °F 30.1 °F 29.88 in Calm   2.0 mph 87 % 0.00 in
15:50 33.6 °F 30.1 °F 29.88 in Calm   2.0 mph 87 % 0.00 in
15:54 33.5 °F 30.0 °F 29.88 in Calm   1.0 mph 88 % 0.00 in
15:55 33.6 °F 30.1 °F 29.88 in Calm   2.0 mph 87 % 0.00 in
16:00 33.6 °F 30.1 °F 29.88 in Calm   2.0 mph 87 % 0.00 in
16:05 33.5 °F 30.1 °F 29.88 in Calm   2.0 mph 87 % 0.00 in
16:09 33.5 °F 30.0 °F 29.87 in Calm   2.0 mph 88 % 0.00 in
16:10 33.5 °F 30.1 °F 29.88 in Calm   2.0 mph 87 % 0.00 in
16:15 33.5 °F 30.1 °F 29.88 in Calm   2.0 mph 87 % 0.00 in
16:20 33.5 °F 30.1 °F 29.88 in Calm   2.0 mph 87 % 0.00 in
16:24 33.5 °F 30.0 °F 29.87 in Calm   6.0 mph 88 % 0.00 in
16:25 33.5 °F 30.1 °F 29.88 in Calm   2.0 mph 87 % 0.00 in
16:30 33.5 °F 30.1 °F 29.88 in Calm   2.0 mph 87 % 0.00 in
16:35 33.5 °F 30.1 °F 29.88 in Calm   6.0 mph 87 % 0.00 in
16:39 33.5 °F 30.0 °F 29.88 in Calm   2.0 mph 88 % 0.00 in
16:40 33.5 °F 30.1 °F 29.88 in Calm   6.0 mph 87 % 0.00 in
16:45 33.5 °F 30.1 °F 29.88 in Calm   6.0 mph 87 % 0.00 in
16:50 33.5 °F 30.1 °F 29.89 in Calm   2.0 mph 87 % 0.00 in
16:54 33.5 °F 30.0 °F 29.89 in Calm     88 % 0.00 in
16:55 33.5 °F 30.1 °F 29.89 in Calm   2.0 mph 87 % 0.00 in
17:00 33.5 °F 30.1 °F 29.89 in Calm   2.0 mph 87 % 0.00 in
17:05 33.5 °F 30.1 °F 29.89 in Calm     87 % 0.00 in
17:09 33.4 °F 30.0 °F 29.89 in Calm     88 % 0.00 in
17:10 33.5 °F 30.1 °F 29.89 in Calm     87 % 0.00 in
17:15 33.5 °F 30.1 °F 29.89 in Calm     87 % 0.00 in
17:20 33.4 °F 30.0 °F 29.89 in Calm   1.0 mph 87 % 0.00 in
17:24 33.4 °F 30.0 °F 29.88 in Calm     88 % 0.00 in
17:25 33.4 °F 30.0 °F 29.89 in Calm   1.0 mph 87 % 0.00 in
17:30 33.4 °F 30.0 °F 29.89 in Calm   1.0 mph 87 % 0.00 in
17:35 33.4 °F 30.0 °F 29.88 in Calm     87 % 0.00 in
17:39 33.3 °F 30.0 °F 29.88 in Calm     88 % 0.00 in
17:40 33.4 °F 30.0 °F 29.88 in Calm     87 % 0.00 in
17:45 33.4 °F 30.0 °F 29.88 in Calm     87 % 0.00 in
17:50 33.3 °F 29.9 °F 29.89 in Calm     87 % 0.00 in
17:55 33.2 °F 30.0 °F 29.88 in Calm     88 % 0.00 in
18:00 33.3 °F 29.9 °F 29.89 in Calm     87 % 0.00 in
18:05 33.2 °F 29.8 °F 29.88 in Calm     87 % 0.00 in
18:09 33.2 °F 30.0 °F 29.88 in Calm     88 % 0.00 in
18:10 33.2 °F 29.8 °F 29.88 in Calm     87 % 0.00 in
18:15 33.2 °F 29.8 °F 29.88 in Calm     87 % 0.00 in
18:20 33.2 °F 29.8 °F 29.88 in Calm     87 % 0.00 in
18:24 33.1 °F 30.0 °F 29.87 in Calm     88 % 0.00 in
18:25 33.2 °F 29.8 °F 29.88 in Calm     87 % 0.00 in
18:30 33.2 °F 29.8 °F 29.88 in Calm     87 % 0.00 in
18:35 33.1 °F 29.7 °F 29.88 in Calm     87 % 0.00 in
18:39 33.0 °F 30.0 °F 29.88 in Calm     88 % 0.00 in
18:40 33.1 °F 29.7 °F 29.88 in Calm     87 % 0.00 in
18:45 33.1 °F 29.7 °F 29.88 in Calm     87 % 0.00 in
18:50 33.0 °F 29.6 °F 29.88 in Calm     87 % 0.00 in
18:54 32.9 °F 30.0 °F 29.88 in Calm     89 % 0.00 in
18:55 33.0 °F 29.6 °F 29.88 in Calm     87 % 0.00 in
19:00 33.0 °F 29.6 °F 29.88 in Calm     87 % 0.00 in
19:05 32.9 °F 29.8 °F 29.88 in Calm     88 % 0.00 in
19:09 32.9 °F 30.0 °F 29.88 in Calm     89 % 0.00 in
19:10 32.9 °F 29.8 °F 29.88 in Calm     88 % 0.00 in
19:15 32.9 °F 29.8 °F 29.88 in Calm     88 % 0.00 in
19:20 32.9 °F 29.8 °F 29.89 in Calm     88 % 0.00 in
19:24 32.8 °F 30.0 °F 29.88 in Calm     89 % 0.00 in
19:25 32.9 °F 29.8 °F 29.89 in Calm     88 % 0.00 in
19:30 32.9 °F 29.8 °F 29.89 in Calm     88 % 0.00 in
19:35 32.8 °F 29.6 °F 29.89 in Calm     88 % 0.00 in
19:39 32.8 °F 30.0 °F 29.87 in Calm     89 % 0.00 in
19:40 32.8 °F 29.6 °F 29.89 in Calm     88 % 0.00 in
19:45 32.8 °F 29.6 °F 29.89 in Calm     88 % 0.00 in
19:50 32.7 °F 29.5 °F 29.88 in Calm     88 % 0.00 in
19:54 32.7 °F 30.0 °F 29.88 in Calm     89 % 0.00 in
19:55 32.7 °F 29.5 °F 29.88 in Calm     88 % 0.00 in
20:00 32.7 °F 29.5 °F 29.88 in Calm     88 % 0.00 in
20:05 32.7 °F 29.5 °F 29.89 in Calm     88 % 0.00 in
20:10 32.7 °F 30.0 °F 29.88 in Calm   1.0 mph 89 % 0.00 in
20:15 32.7 °F 29.5 °F 29.89 in Calm     88 % 0.00 in
20:20 32.7 °F 29.5 °F 29.88 in Calm   1.0 mph 88 % 0.00 in
20:24 32.7 °F 30.0 °F 29.88 in Calm     89 % 0.00 in
20:25 32.7 °F 29.5 °F 29.88 in Calm   1.0 mph 88 % 0.00 in
20:30 32.7 °F 29.5 °F 29.88 in Calm   1.0 mph 88 % 0.00 in
20:35 32.7 °F 29.5 °F 29.89 in Calm     88 % 0.00 in
20:39 32.7 °F 30.0 °F 29.88 in Calm     89 % 0.00 in
20:40 32.7 °F 29.5 °F 29.89 in Calm     88 % 0.00 in
20:45 32.7 °F 29.5 °F 29.89 in Calm     88 % 0.00 in
20:50 32.7 °F 29.5 °F 29.89 in Calm     88 % 0.00 in
20:54 32.7 °F 30.0 °F 29.89 in Calm     89 % 0.00 in
20:55 32.7 °F 29.5 °F 29.89 in Calm     88 % 0.00 in
21:00 32.7 °F 29.5 °F 29.89 in Calm     88 % 0.00 in
21:05 32.7 °F 29.5 °F 29.90 in Calm     88 % 0.00 in
21:09 32.7 °F 30.0 °F 29.90 in Calm     90 % 0.00 in
21:10 32.7 °F 29.5 °F 29.90 in Calm     88 % 0.00 in
21:15 32.7 °F 29.5 °F 29.90 in Calm     88 % 0.00 in
21:20 32.7 °F 29.8 °F 29.90 in Calm     89 % 0.00 in
21:24 32.6 °F 30.0 °F 29.90 in Calm     90 % 0.00 in
21:25 32.7 °F 29.8 °F 29.90 in Calm     89 % 0.00 in
21:30 32.7 °F 29.8 °F 29.90 in Calm     89 % 0.00 in
21:35 32.6 °F 29.7 °F 29.91 in Calm     89 % 0.00 in
21:40 32.6 °F 30.0 °F 29.91 in Calm     90 % 0.00 in
21:45 32.6 °F 29.7 °F 29.91 in Calm     89 % 0.00 in
21:50 32.6 °F 29.7 °F 29.91 in Calm     89 % 0.00 in
21:54 32.6 °F 30.0 °F 29.90 in Calm     90 % 0.00 in
21:55 32.6 °F 29.7 °F 29.91 in Calm     89 % 0.00 in
22:00 32.6 °F 29.7 °F 29.91 in Calm     89 % 0.00 in
22:05 32.6 °F 29.7 °F 29.91 in Calm     89 % 0.00 in
22:09 32.5 °F 30.0 °F 29.90 in Calm     90 % 0.00 in
22:10 32.6 °F 29.7 °F 29.91 in Calm     89 % 0.00 in
22:15 32.6 °F 29.7 °F 29.91 in Calm     89 % 0.00 in
22:20 32.6 °F 29.7 °F 29.92 in Calm     89 % 0.00 in
22:24 32.5 °F 30.0 °F 29.91 in Calm     90 % 0.00 in
22:25 32.6 °F 29.7 °F 29.92 in Calm     89 % 0.00 in
22:30 32.6 °F 29.7 °F 29.92 in Calm     89 % 0.00 in
22:35 32.5 °F 29.6 °F 29.91 in Calm     89 % 0.00 in
22:39 32.4 °F 30.0 °F 29.91 in Calm     90 % 0.00 in
22:40 32.5 °F 29.6 °F 29.91 in Calm     89 % 0.00 in
22:45 32.5 °F 29.6 °F 29.91 in Calm     89 % 0.00 in
22:50 32.4 °F 29.5 °F 29.92 in Calm     89 % 0.00 in
22:54 32.4 °F 30.0 °F 29.91 in Calm     90 % 0.00 in
22:55 32.4 °F 29.5 °F 29.92 in Calm     89 % 0.00 in
23:00 32.4 °F 29.5 °F 29.92 in Calm     89 % 0.00 in
23:05 32.4 °F 29.5 °F 29.91 in Calm     89 % 0.00 in
23:09 32.3 °F 30.0 °F 29.90 in Calm     90 % 0.00 in
23:10 32.4 °F 29.5 °F 29.91 in Calm     89 % 0.00 in
23:15 32.4 °F 29.5 °F 29.91 in Calm     89 % 0.00 in
23:20 32.4 °F 29.5 °F 29.90 in Calm     89 % 0.00 in
23:25 32.3 °F 30.0 °F 29.90 in Calm     90 % 0.00 in
23:30 32.4 °F 29.5 °F 29.90 in Calm     89 % 0.00 in
23:35 32.3 °F 29.4 °F 29.91 in Calm     89 % 0.00 in
23:40 32.3 °F 30.0 °F 29.90 in Calm   2.0 mph 90 % 0.00 in
23:45 32.3 °F 29.4 °F 29.91 in Calm     89 % 0.00 in
23:50 32.2 °F 29.3 °F 29.91 in Calm   2.0 mph 89 % 0.00 in
23:55 32.3 °F 30.0 °F 29.90 in Calm     90 % 0.00 in
Des Moines Weather and Climate
Compliments of Weather Underground - 4.5 mb

Script developed by  Jim McMurry - jmcmurry@mwt.net Adapted for the template by  Wim van der Kuil - Leuven-Template.eu

You find our weather info also at:

Weather Underground

Equipment we use:

Weather-station
Davis VP2 Plus

Weather-program
Davis Weatherlink.Com

Weather-server
iMac (Retina 4K, 21.5-inch, Late 2015)

Provider
Hostmonster.com

Davis VP2 Plus

Davis Weatherlink.Com

iMac (Retina 4K, 21.5-inch, Late 2015)

Hostmonster.com